[Iaude] MPEC P63: 2018 PR10 [a=0.73,e=0.52,i=12.6,H=24.1]

mpec at mpcdb1.cfa.harvard.edu mpec at mpcdb1.cfa.harvard.edu
Sat Aug 11 18:35:20 EDT 2018


M.P.E.C. 2018-P63                                Issued 2018 Aug. 11, 22:31 UT
 
     The Minor Planet Electronic Circulars contain information on unusual
         minor planets and routine data on comets.  They are published
    on behalf of Division F of the International Astronomical Union by the
          Minor Planet Center, Smithsonian Astrophysical Observatory,
                          Cambridge, MA 02138, U.S.A.

             Prepared using the Tamkin Foundation Computer Network

                              MPC at CFA.HARVARD.EDU
            URL https://www.minorplanetcenter.net/    ISSN 1523-6714


                                   2018 PR10
 
Observations:
     K18P10R* C2018 08 08.40129 21 06 13.830-29 18 09.48         20.0 wUEP063F51
     K18P10R  C2018 08 08.42326 21 05 50.307-29 17 46.84         19.9 wUEP063F51
     K18P10R  C2018 08 08.43425 21 05 38.549-29 17 35.11         20.3 wUEP063F51
     K18P10R KC2018 08 08.92446920 57 16.560-29 07 39.17         20.2 GVEP063J04
     K18P10R KC2018 08 08.92563220 57 15.370-29 07 37.61         19.6 GVEP063J04
     K18P10R KC2018 08 09.51018 20 47 07.78 -28 51 30.6          20.2 GVEP063474
     K18P10R KC2018 08 09.51199 20 47 05.81 -28 51 27.7          20.0 GVEP063474
     K18P10R KC2018 08 09.51381 20 47 03.90 -28 51 24.4          20.1 GVEP063474
     K18P10R KC2018 08 09.51562 20 47 01.97 -28 51 21.6          19.9 GVEP063474
     K18P10R KC2018 08 11.51718 20 13 07.45 -27 39 09.6          20.1 GVEP063474
     K18P10R KC2018 08 11.51772 20 13 06.89 -27 39 08.2          20.1 GVEP063474
     K18P10R KC2018 08 11.51936 20 13 05.20 -27 39 03.9          20.1 GVEP063474
     K18P10R KC2018 08 11.51990 20 13 04.65 -27 39 02.4          20.2 GVEP063474
 
Observer details:
474 Mount John Observatory, Lake Tekapo.  Observers A. C. Gilmore,
    P. M. Kilmartin.  Measurer P. M. Kilmartin.  1.0-m f/7.7 reflector + CCD.
F51 Pan-STARRS 1, Haleakala.  Observers J. Bulger, T. Lowe, A. Schultz,
    M. Willman.  Measurers K. Chambers, S. Chastel, L. Denneau, H. Flewelling,
    M. Huber, E. Magnier, Y. Ramanjooloo, R. Wainscoat, C. Waters, R. Weryk.
    1.8-m Ritchey-Chretien + CCD.
J04 ESA Optical Ground Station, Tenerife.  Observer P. Ruiz.  Measurers
    M. Micheli, D. Koschny, M. Busch, E. Schwab, A. Knoefel.  1.0-m f/4.4
    reflector + CCD.
 
Orbital elements:
2018 PR10                                                Earth MOID = 0.0517 AU
Epoch 2018 Mar. 23.0 TT = JDT 2458200.5                 MPC
M 334.55258              (2000.0)            P               Q
n   1.57621748     Peri.  170.42844     -0.64952763     -0.74728849
a   0.7312378      Node   319.88422     +0.68240724     -0.49159513
e   0.5232367      Incl.   12.57322     +0.33531213     -0.44709522
P   0.63           H   24.1           G   0.15           U   9
Residuals in seconds of arc
180808 F51  0.1-  0.0     180809 474  0.3+  0.0     180811 474  0.1+  0.0
180808 F51  0.1-  0.0     180809 474  0.3-  0.1-    180811 474  0.1-  0.1-
180808 F51  0.2+  0.0     180809 474  0.0   0.2+    180811 474  0.1-  0.0
180808 J04  0.2-  0.0     180809 474  0.1-  0.0
180808 J04  0.4+  0.2+    180811 474  0.2+  0.1+

Ephemeris:
2018 PR10                a,e,i = 0.73, 0.52, 13                  q = 0.3486
Date    TT    R. A. (2000) Decl.     Delta      r     Elong.  Phase     V
2018 07 12    00 51 22.0 -19 53 47   0.2145  1.0904   104.5    64.5    23.2
...
2018 07 27    23 46 21.9 -25 31 32   0.1357  1.1127   133.1    41.8    21.6
...
2018 08 04    22 17 31.7 -29 14 07   0.1055  1.1130   157.7    20.2    20.5
...
2018 08 10    20 38 44.4 -28 37 21   0.09759 1.1080   164.2    14.4    20.1
2018 08 11    20 21 46.4 -28 01 20   0.09787 1.1067   161.2    17.1    20.2
2018 08 12    20 05 14.2 -27 17 38   0.09863 1.1053   157.7    20.4    20.3
...
2018 08 18    18 42 20.3 -21 25 44   0.1118  1.0943   135.1    40.8    21.1
...
2018 08 26    17 37 39.5 -14 07 51   0.1441  1.0724   111.7    61.1    22.2
...
2018 09 10    16 46 37.9 -06 27 35   0.2169  1.0088    84.3    83.4    23.7

A. U. Tomatic                (C) Copyright 2018 MPC           M.P.E.C. 2018-P63



More information about the Iaude mailing list